Temp
11 11 13 14 13 13 13 13 13 13 14 14 13 13 14 14 14 13 14 14 14 14 14 14 14 14 14 14 15 15 15 15 15 15 15 15 15 15 15 15 15 15 15
11 11 13 14 14 14 14 14 14 14 14 14 14 14 14 14 13 13 13 13 13 13 13 14 14 14 14 14 14 15 15 15 15 15 15 15 15 15 15 15 15 14 15
12 11 11 13 13 14 14 14 14 14 14 14 14 14 14 14 13 13 13 14 14 14 13 13 13 13 13 13 14 14 14 14 14 14 15 15 13 14 15 15 15 15 15
12 10 11 13 13 13 13 13 13 13 14 14 14 14 14 14 14 14 14 14 14 13 13 14 14 13 13 13 13 13 13 14 14 14 14 13 13 14 15 14 15 15 15
11 9 12 12 12 12 13 13 13 13 13 13 13 13 13 13 13 13 13 13 13 14 14 14 13 13 13 13 13 13 13 13 13 14 12 13 13 13 14 14 14 15 15
11 10 12 12 12 12 12 12 12 12 12 12 12 12 12 12 12 12 12 12 12 12 12 13 13 13 13 13 13 13 14 13 13 12 13 13 12 13 15 14 14 14 14
12 11 12 12 12 12 12 12 12 12 12 12 11 11 11 11 11 11 11 11 11 11 12 12 12 12 12 13 13 13 13 13 13 13 13 12 12 12 13 14 14 14 14
11 11 11 12 12 12 12 11 11 11 11 11 11 11 10 10 10 10 10 10 10 11 11 11 11 11 11 12 12 12 12 13 13 13 13 12 12 12 12 13 14 14 14
11 11 11 11 11 11 11 10 10 10 10 10 10 10 10 9 9 9 9 9 9 9 9 10 10 10 10 10 11 11 12 12 12 11 13 13 12 12 13 13 13 13 14
11 11 11 11 11 10 10 10 10 9 9 9 9 9 9 9 9 9 9 9 9 9 9 9 9 9 9 9 10 10 10 11 10 12 11 10 12 12 12 12 13 13 13
11 11 11 10 10 10 9 9 9 9 9 9 9 9 9 9 9 8 8 8 8 8 8 8 8 9 9 9 9 9 9 9 10 11 11 11 12 12 12 12 12 13 13
10 10 10 10 9 9 9 9 9 9 9 9 9 9 9 8 8 8 8 8 8 8 8 8 9 9 8 8 8 9 9 9 9 9 9 11 11 12 12 11 12 12 12
10 10 9 9 9 8 8 8 8 8 8 8 8 8 8 7 7 7 7 7 7 7 8 8 8 8 8 8 8 7 7 7 7 8 8 10 10 11 11 11 10 11 12
10 9 9 9 8 8 8 8 8 8 8 8 7 7 6 6 6 6 6 6 6 6 7 7 7 6 6 6 5 6 6 5 4 4 6 8 9 9 10 11 11 10 11
9 9 9 8 8 8 8 8 8 8 7 7 6 6 5 5 5 6 6 5 5 5 5 5 5 5 5 6 6 5 5 5 5 5 6 6 7 8 9 10 10 9 9
9 9 8 8 7 8 8 8 8 7 7 6 5 5 5 5 4 4 4 4 4 4 3 3 3 3 3 3 3 4 3 3 4 4 5 5 6 7 8 9 9 10 9
9 8 8 7 7 7 8 7 7 7 6 5 5 5 4 4 4 3 3 3 2 2 2 2 1 -0 -1 -1 -1 -0 0 1 1 1 4 5 5 6 7 8 8 9 9
8 8 7 7 7 7 7 7 6 6 5 5 4 4 4 3 2 2 2 1 1 1 0 -2 -2 -2 -2 -2 -1 -1 -1 -0 -0 0 1 3 4 5 6 7 8 8 9
8 7 7 7 7 7 6 6 6 6 5 4 4 3 3 2 2 1 0 -0 -0 -0 -2 -3 -2 -2 -3 -2 -2 -1 -1 -1 -1 0 1 2 2 4 4 4 7 8 8
7 7 6 7 6 6 6 6 5 5 4 4 3 3 2 2 1 0 0 -0 -1 -2 -3 -3 -3 -4 -4 -3 -3 -3 -2 -1 -1 -0 1 2 2 3 3 4 4 5 8
7 7 7 6 6 6 5 5 5 5 4 4 3 2 2 1 0 -0 -1 -1 -1 -2 -3 -4 -5 -5 -4 -4 -4 -3 -3 -1 0 0 1 2 2 2 2 2 4 5 6
7 7 6 6 6 5 5 5 4 4 4 3 3 2 2 1 -0 -1 -1 -2 -3 -4 -5 -5 -5 -5 -5 -5 -5 -5 -2 -1 0 -1 0 0 0 1 1 3 3 4 5
7 6 6 6 5 5 4 4 4 3 3 2 2 1 1 -0 -1 -1 -1 -2 -2 -3 -5 -6 -6 -6 -6 -6 -5 -6 -5 -2 -4 -2 -1 -1 -0 -1 0 1 2 2 4
7 6 6 5 5 4 4 3 3 2 2 1 1 0 -0 -1 -1 -2 -2 -3 -3 -4 -6 -6 -6 -7 -7 -6 -6 -6 -6 -6 -6 -5 -4 -3 -2 -1 -1 -1 -0 1 2
6 6 6 5 4 4 3 2 2 1 1 1 0 -1 -1 -2 -2 -2 -3 -3 -4 -5 -6 -6 -7 -7 -7 -7 -7 -7 -7 -7 -6 -6 -5 -3 -4 -2 -2 -2 -1 1 0
6 6 5 4 4 3 2 2 1 1 1 0 -1 -1 -2 -2 -3 -3 -4 -4 -5 -6 -6 -7 -8 -8 -8 -8 -8 -8 -8 -7 -7 -6 -6 -5 -5 -3 -2 -2 -1 -0 0
Height
1559 1558 1556 1555 1554 1553 1552 1551 1550 1549 1547 1546 1546 1545 1544 1543 1542 1541 1540 1539 1538 1537 1536 1534 1533 1532 1530 1529 1528 1527 1526 1524 1523 1522 1521 1520 1520 1519 1519 1519 1519 1519 1520
1558 1558 1556 1555 1553 1553 1552 1551 1549 1548 1547 1546 1545 1545 1543 1542 1541 1539 1538 1537 1536 1536 1535 1533 1532 1531 1529 1528 1526 1525 1524 1523 1522 1521 1520 1519 1518 1518 1518 1518 1517 1519 1518
1558 1558 1557 1554 1554 1553 1551 1550 1549 1547 1546 1545 1544 1543 1542 1541 1540 1539 1537 1536 1535 1534 1533 1531 1530 1529 1527 1526 1525 1524 1523 1521 1520 1519 1518 1518 1518 1516 1516 1516 1516 1516 1516
1557 1558 1556 1554 1554 1553 1551 1550 1548 1547 1546 1545 1544 1543 1541 1540 1538 1537 1536 1534 1533 1531 1529 1528 1527 1526 1524 1523 1522 1521 1520 1519 1518 1516 1516 1517 1516 1514 1514 1514 1514 1514 1514
1556 1557 1555 1554 1553 1552 1551 1549 1548 1547 1546 1545 1544 1543 1541 1539 1538 1537 1535 1533 1531 1529 1527 1526 1524 1523 1521 1520 1519 1518 1517 1515 1514 1513 1514 1515 1513 1512 1511 1511 1512 1512 1512
1556 1556 1554 1554 1553 1551 1550 1549 1548 1547 1546 1545 1544 1542 1540 1539 1537 1536 1534 1531 1530 1528 1526 1524 1522 1520 1518 1517 1515 1514 1512 1511 1511 1511 1511 1511 1509 1508 1507 1508 1508 1508 1508
1554 1554 1554 1554 1553 1551 1551 1550 1549 1548 1546 1545 1543 1542 1539 1538 1536 1534 1532 1530 1528 1526 1523 1521 1519 1517 1515 1513 1511 1511 1509 1509 1508 1507 1506 1506 1506 1505 1504 1504 1504 1504 1504
1553 1554 1554 1553 1552 1552 1551 1550 1549 1547 1546 1544 1542 1541 1539 1537 1535 1533 1530 1528 1525 1523 1520 1518 1516 1514 1512 1510 1508 1506 1504 1503 1502 1501 1501 1500 1501 1500 1499 1499 1498 1498 1499
1552 1553 1553 1552 1552 1552 1551 1549 1547 1546 1544 1543 1541 1539 1538 1536 1533 1531 1528 1526 1523 1521 1518 1516 1513 1511 1509 1506 1504 1503 1501 1499 1497 1497 1494 1494 1494 1494 1493 1493 1493 1493 1493
1551 1551 1551 1551 1551 1550 1549 1548 1546 1545 1544 1542 1540 1538 1536 1534 1531 1528 1525 1522 1520 1517 1515 1512 1510 1508 1505 1503 1501 1498 1496 1495 1493 1491 1489 1489 1487 1488 1488 1487 1486 1486 1486
1549 1550 1550 1550 1549 1549 1548 1547 1546 1544 1542 1540 1538 1536 1533 1531 1528 1525 1522 1519 1516 1514 1511 1509 1506 1503 1501 1498 1496 1493 1492 1490 1487 1485 1483 1482 1480 1480 1480 1480 1479 1478 1478
1547 1548 1548 1548 1547 1547 1547 1546 1544 1542 1540 1539 1538 1536 1533 1530 1527 1524 1520 1517 1514 1510 1507 1504 1501 1498 1495 1492 1489 1487 1486 1484 1481 1479 1477 1475 1474 1472 1471 1471 1471 1470 1470
1544 1545 1546 1546 1546 1545 1545 1543 1542 1541 1540 1539 1537 1535 1531 1528 1525 1521 1518 1514 1510 1506 1503 1499 1496 1493 1490 1486 1483 1480 1477 1475 1473 1471 1468 1466 1466 1464 1462 1461 1461 1461 1461
1542 1543 1543 1544 1544 1543 1542 1542 1542 1540 1539 1537 1535 1533 1529 1525 1522 1518 1514 1510 1506 1502 1499 1495 1491 1487 1484 1480 1477 1474 1471 1468 1466 1462 1458 1457 1456 1456 1453 1452 1451 1451 1452
1539 1540 1541 1541 1541 1541 1541 1541 1540 1539 1538 1536 1534 1531 1527 1523 1520 1516 1513 1509 1505 1500 1496 1492 1488 1483 1480 1476 1472 1468 1464 1461 1457 1453 1450 1447 1446 1446 1443 1442 1441 1441 1441
1536 1537 1538 1539 1539 1539 1539 1539 1539 1538 1537 1535 1532 1528 1524 1521 1517 1513 1509 1505 1501 1497 1492 1487 1483 1479 1474 1470 1465 1461 1456 1452 1449 1446 1442 1439 1436 1435 1434 1432 1431 1430 1430
1533 1534 1535 1536 1536 1537 1537 1537 1536 1536 1534 1532 1529 1526 1522 1518 1514 1510 1506 1502 1497 1493 1488 1483 1478 1473 1469 1464 1460 1455 1450 1446 1441 1437 1435 1431 1427 1425 1424 1423 1423 1421 1420
1529 1530 1532 1533 1534 1534 1534 1534 1534 1533 1532 1529 1526 1523 1519 1515 1511 1507 1502 1497 1492 1488 1483 1478 1473 1469 1464 1458 1453 1448 1443 1439 1434 1429 1426 1423 1420 1417 1415 1413 1414 1413 1411
1525 1527 1528 1530 1530 1531 1531 1531 1531 1530 1529 1526 1523 1520 1516 1512 1507 1502 1497 1492 1487 1483 1479 1475 1470 1465 1459 1454 1448 1441 1436 1430 1424 1422 1419 1416 1413 1410 1407 1406 1405 1403 1403
1521 1523 1524 1525 1526 1527 1527 1527 1527 1526 1525 1522 1520 1516 1512 1507 1502 1497 1492 1488 1483 1478 1474 1469 1464 1460 1455 1450 1443 1435 1429 1423 1417 1414 1412 1410 1408 1405 1403 1400 1397 1395 1394
1516 1518 1520 1521 1522 1523 1523 1524 1524 1523 1521 1519 1516 1512 1507 1502 1497 1492 1488 1483 1478 1474 1469 1464 1460 1455 1450 1447 1439 1430 1422 1414 1412 1410 1408 1406 1403 1398 1395 1393 1390 1388 1385
1511 1513 1515 1517 1518 1519 1519 1519 1520 1518 1517 1514 1511 1508 1503 1498 1492 1488 1483 1478 1473 1468 1464 1459 1455 1451 1448 1445 1439 1431 1416 1408 1407 1404 1402 1400 1398 1395 1390 1386 1385 1381 1379
1504 1508 1510 1512 1513 1514 1514 1515 1515 1514 1512 1509 1506 1503 1499 1494 1489 1484 1480 1474 1469 1464 1458 1454 1450 1446 1441 1438 1437 1435 1424 1412 1405 1400 1397 1395 1393 1390 1387 1380 1378 1376 1374
1499 1503 1506 1508 1509 1510 1511 1511 1511 1510 1508 1505 1501 1497 1492 1488 1483 1479 1474 1468 1463 1459 1454 1449 1446 1442 1438 1433 1430 1429 1425 1419 1411 1392 1395 1393 1389 1386 1382 1378 1372 1370 1369
1494 1498 1502 1504 1505 1506 1506 1507 1507 1506 1503 1499 1495 1491 1486 1482 1477 1472 1467 1462 1457 1453 1449 1444 1440 1437 1434 1430 1425 1421 1417 1413 1409 1402 1388 1385 1385 1383 1379 1374 1368 1365 1365
1488 1493 1496 1498 1500 1501 1502 1503 1502 1501 1498 1494 1491 1486 1481 1477 1472 1467 1462 1457 1452 1448 1443 1439 1435 1431 1428 1425 1420 1416 1412 1408 1403 1399 1391 1385 1380 1377 1375 1370 1364 1359 1360
Wind_Speed
6 8 8 8 9 7 4 7 7 8 7 8 8 8 8 10 9 10 9 9 9 9 9 11 11 12 13 13 13 14 13 13 12 11 11 11 10 10 10 9 8 7 9
5 7 6 7 8 7 8 8 7 7 7 8 8 8 8 6 5 6 7 7 7 8 10 10 11 12 13 15 15 15 15 14 14 13 12 11 11 11 11 11 11 10 11
3 6 7 7 6 7 7 8 8 8 7 7 8 9 9 9 9 10 11 12 12 12 11 10 9 10 13 15 16 16 16 16 16 15 14 13 11 13 12 13 13 13 13
4 7 7 7 7 8 9 8 8 8 8 9 9 9 9 9 10 11 11 11 11 12 13 14 14 14 13 12 13 16 17 18 17 18 16 13 14 17 15 15 16 17 17
4 6 6 7 8 8 9 9 10 10 10 10 10 10 10 10 11 11 12 13 13 14 14 16 17 18 18 18 17 14 15 17 19 19 17 17 17 17 19 19 19 20 21
3 5 5 5 6 7 8 9 10 11 11 11 11 11 11 11 12 13 13 13 14 15 16 16 17 18 19 20 22 23 21 20 20 18 17 18 22 21 22 23 24 24 23
4 4 3 4 5 6 7 8 8 9 10 11 12 13 14 14 14 15 16 16 17 17 17 18 19 20 20 20 21 23 24 25 26 25 23 20 20 24 25 24 26 26 26
5 4 3 2 3 4 5 6 7 8 10 11 13 14 15 16 17 17 18 19 19 20 20 20 20 21 22 23 23 23 23 24 25 27 28 25 24 26 27 27 28 29 29
6 5 3 1 1 2 4 5 7 9 11 12 14 15 16 18 19 19 20 20 21 22 23 24 25 25 26 26 26 26 26 26 26 22 27 29 26 28 29 29 31 31 32
7 5 3 3 1 1 3 5 8 10 12 14 16 18 19 20 21 22 23 25 25 26 27 27 27 28 29 29 29 30 30 29 24 28 26 24 31 32 33 32 32 34 34
8 7 6 4 2 1 3 6 8 10 13 16 20 22 24 25 26 26 26 27 27 28 29 30 30 31 31 32 32 32 32 31 32 32 31 29 32 34 34 35 35 35 36
11 9 7 5 3 1 2 5 9 12 16 18 20 21 23 24 25 25 26 27 28 30 31 32 33 33 34 34 34 34 32 33 35 34 34 36 35 35 37 36 37 38 37
11 10 8 6 4 1 3 7 9 12 15 17 20 22 24 25 26 27 29 30 32 33 33 34 35 35 36 36 37 36 35 34 32 34 37 39 37 38 38 40 37 39 39
13 11 9 8 5 1 4 6 8 12 15 18 21 24 26 28 29 30 32 34 35 36 36 36 37 37 38 37 37 38 37 35 32 32 34 39 39 39 39 40 41 39 41
15 12 11 9 4 0 3 6 9 12 15 18 21 25 27 28 29 31 32 32 33 33 34 34 35 36 37 38 38 39 40 40 40 39 41 41 39 40 40 40 41 40 38
17 14 13 9 5 2 3 6 9 12 15 18 22 26 28 29 31 32 32 32 32 32 32 33 33 34 35 35 36 36 37 37 38 39 40 40 41 39 40 39 40 41 39
18 15 13 10 7 4 5 7 9 12 15 18 23 27 29 31 31 31 32 31 30 30 30 29 28 27 26 27 28 28 30 32 32 33 36 40 41 39 38 37 37 38 39
20 16 14 12 9 6 6 7 9 12 15 19 23 27 29 31 31 31 30 28 28 29 27 24 24 24 25 26 28 28 29 29 31 33 34 34 36 35 36 36 35 35 35
21 18 17 14 11 8 7 7 10 14 16 20 24 28 30 31 30 30 28 27 27 27 24 22 24 24 26 27 28 29 30 31 30 31 32 31 30 30 27 26 31 35 34
22 19 19 16 13 10 8 9 12 15 17 20 25 28 31 31 30 30 28 27 28 26 24 23 25 24 24 25 28 30 30 30 29 28 25 23 21 22 19 20 24 25 31
25 22 21 18 15 12 11 11 13 16 19 21 25 29 31 31 31 30 29 30 28 26 26 24 23 23 22 21 27 30 28 26 18 22 17 17 18 21 23 17 19 23 27
27 24 22 20 17 15 14 14 16 18 21 23 27 31 33 33 31 30 30 29 28 26 24 21 21 22 21 19 24 28 21 30 4 16 25 19 19 19 23 25 21 14 19
30 26 24 21 18 18 17 16 18 20 22 24 28 32 33 32 30 31 32 32 30 27 24 22 20 20 24 21 18 15 14 12 35 14 21 20 16 22 18 29 27 21 14
31 28 24 22 21 20 18 17 18 20 23 25 30 33 33 31 31 32 31 30 28 26 24 23 20 21 21 24 21 18 22 29 29 27 22 26 24 20 20 23 30 36 19
31 29 25 23 22 21 19 18 19 21 24 28 31 33 31 30 32 32 30 29 27 26 25 26 24 21 21 22 24 23 22 25 26 31 35 25 28 22 22 22 27 25 22
31 29 26 25 24 22 20 19 19 22 25 29 31 32 30 32 32 30 29 29 27 25 25 25 24 23 22 22 24 25 26 25 27 28 32 33 33 28 22 24 24 21 19
Wind_Direction
16 27 23 16 26 29 31 40 44 47 38 39 38 30 29 29 18 15 1 350 337 324 321 320 322 325 316 313 312 315 317 316 313 306 300 291 281 272 264 259 248 247 243
48 31 14 10 8 5 357 2 351 340 349 344 336 335 342 337 357 2 354 345 351 350 345 331 319 313 312 312 310 307 307 308 309 303 297 293 284 272 261 255 245 238 242
65 43 23 15 5 354 4 8 14 12 12 5 358 354 344 337 330 325 320 318 317 317 320 312 321 327 320 310 308 307 305 303 301 299 291 288 280 273 261 255 252 247 242
68 52 38 30 30 36 44 47 43 36 28 22 15 8 358 349 342 341 337 331 321 312 306 303 303 299 298 305 306 308 302 299 294 289 289 283 274 271 263 257 254 252 250
73 68 46 40 43 46 47 46 43 41 38 33 29 23 17 8 359 353 345 341 336 325 320 313 308 303 297 292 290 288 297 290 286 284 288 281 274 267 263 259 256 255 253
102 86 64 57 50 45 40 35 32 27 24 22 19 16 9 3 356 351 346 341 336 333 331 327 321 315 310 305 298 289 281 279 281 282 277 276 274 267 264 261 258 256 254
143 117 91 69 47 34 27 22 18 16 13 9 4 360 355 351 348 344 339 336 332 329 326 324 320 318 314 311 307 302 296 289 284 282 276 275 271 270 269 262 259 255 253
150 142 138 92 44 25 17 15 14 12 6 1 357 351 347 342 339 335 333 330 326 323 321 319 317 314 313 310 306 303 301 298 292 286 277 273 268 267 268 265 259 256 252
167 169 157 131 36 16 14 12 11 6 359 354 352 350 346 344 340 337 334 330 327 325 323 320 317 314 311 310 308 305 300 299 298 296 283 276 271 268 270 266 262 258 254
180 179 191 199 198 14 11 9 5 359 359 0 357 352 348 342 340 338 336 334 332 329 325 322 318 315 311 308 305 303 302 300 296 291 292 284 275 268 268 267 264 260 256
187 196 200 197 185 45 7 354 359 6 3 358 353 349 346 343 339 336 331 328 324 322 320 318 316 314 312 309 306 303 301 298 294 290 286 282 279 273 268 265 264 261 256
193 199 201 195 188 198 338 6 14 7 1 355 350 345 341 337 334 332 329 326 324 321 320 318 315 313 312 310 309 305 300 297 294 291 286 280 278 278 274 264 260 261 255
198 202 199 194 197 227 17 19 7 0 354 351 347 345 343 341 338 334 331 329 327 324 321 318 315 313 310 307 305 303 301 299 293 288 282 280 278 274 273 272 263 259 257
201 202 200 200 200 90 21 1 353 353 350 348 346 344 345 341 338 336 334 331 328 324 321 318 315 312 309 307 304 301 299 297 294 290 288 282 277 275 272 270 268 261 256
204 204 205 204 186 82 348 339 339 340 341 343 344 346 343 340 336 333 329 326 322 320 318 314 311 309 306 303 299 298 296 292 290 289 288 286 281 276 273 269 267 266 260
206 207 207 202 197 230 310 311 322 330 335 342 345 344 342 338 334 330 328 326 324 320 318 316 314 311 308 306 304 302 299 296 293 288 286 284 282 278 275 273 270 266 264
209 210 207 207 210 235 278 300 315 323 333 339 344 344 340 336 333 330 328 325 322 321 320 316 313 311 308 307 302 301 300 297 293 290 287 282 282 280 273 271 271 270 264
211 211 210 211 217 238 267 294 308 318 327 336 341 341 337 334 332 329 326 324 323 324 320 315 313 311 309 307 305 302 300 296 293 291 289 287 281 279 277 268 268 270 269
212 212 211 214 222 237 261 287 301 313 324 331 336 337 335 333 331 328 326 324 323 320 316 313 312 311 310 307 305 303 300 296 294 292 289 285 279 277 279 275 270 271 269
211 212 212 217 224 236 255 276 293 308 317 323 331 334 333 332 330 328 326 323 322 319 316 312 311 310 307 307 306 303 301 296 294 291 289 287 283 276 276 283 274 272 271
211 215 215 219 226 235 249 267 284 297 310 319 328 330 331 330 329 329 326 322 320 317 314 313 311 310 308 309 309 309 303 310 294 289 283 284 281 281 268 290 276 272 269
215 216 216 221 227 236 249 264 280 296 306 317 324 328 329 330 329 328 324 320 318 315 312 310 309 309 306 309 309 312 315 313 238 294 294 292 285 293 292 277 277 283 270
213 215 218 224 230 240 252 267 283 298 308 318 322 324 326 326 326 324 320 318 316 314 309 310 309 307 305 305 304 295 312 293 313 314 298 303 298 307 301 290 278 281 297
213 215 219 226 233 244 254 269 284 297 308 316 320 322 323 325 324 321 319 317 315 313 309 307 306 303 302 301 298 285 275 282 294 302 297 294 306 297 297 306 301 267 306
211 216 220 228 235 244 255 268 284 299 309 316 320 320 322 322 320 320 320 319 317 313 309 307 305 300 296 293 290 290 283 281 282 282 294 299 299 301 299 302 302 292 293
211 215 221 229 235 243 254 268 284 299 309 316 319 319 320 320 319 320 320 318 314 310 307 305 302 297 294 289 288 287 284 281 283 286 288 294 297 302 303 300 304 292 263